Meteo orario Abbadia San Salvatore

Oggi, 18 Giugno, Venerdi

Tempo Temperatura Precipitazioni Vento Pressione Umidità
00:00 +14°C° 0 mm 1 m/s 675 mm Hg 79%
01:00 +12°C° 0 mm 0 m/s 674 mm Hg 77%
02:00 +13°C° 0 mm 1 m/s 674 mm Hg 78%
03:00 +13°C° 0 mm 1 m/s 674 mm Hg 79%
04:00 +13°C° 0 mm 1 m/s 674 mm Hg 80%
05:00 +14°C° 0 mm 1 m/s 675 mm Hg 74%
06:00 +16°C° 0 mm 1 m/s 675 mm Hg 67%
07:00 +18°C° 0 mm 1 m/s 676 mm Hg 61%
08:00 +21°C° 0 mm 1 m/s 676 mm Hg 54%
09:00 +23°C° 0 mm 1 m/s 677 mm Hg 47%
10:00 +25°C° 0 mm 1 m/s 677 mm Hg 40%
11:00 +26°C° 0 mm 2 m/s 677 mm Hg 37%
12:00 +27°C° 0 mm 2 m/s 677 mm Hg 34%
13:00 +28°C° 0 mm 3 m/s 677 mm Hg 31%
14:00 +28°C° 0 mm 3 m/s 677 mm Hg 31%
15:00 +27°C° 0 mm 4 m/s 677 mm Hg 32%
16:00 +27°C° 0 mm 4 m/s 677 mm Hg 32%
17:00 +25°C° 0 mm 4 m/s 676 mm Hg 39%
18:00 +22°C° 0 mm 3 m/s 676 mm Hg 45%
19:00 +20°C° 0 mm 2 m/s 676 mm Hg 52%
20:00 +18°C° 0 mm 2 m/s 675 mm Hg 57%
21:00 +16°C° 0 mm 1 m/s 675 mm Hg 63%
22:00 +14°C° 0 mm 1 m/s 675 mm Hg 68%
23:00 +14°C° 0 mm 1 m/s 675 mm Hg 67%

Domani, 19 Giugno, Sabato

Tempo Temperatura Precipitazioni Vento Pressione Umidità
00:00 +13°C° 0 mm 1 m/s 675 mm Hg 67%
01:00 +13°C° 0 mm 1 m/s 675 mm Hg 66%
02:00 +12°C° 0 mm 1 m/s 674 mm Hg 65%
03:00 +12°C° 0 mm 1 m/s 674 mm Hg 64%
04:00 +12°C° 0 mm 1 m/s 674 mm Hg 62%
05:00 +14°C° 0 mm 1 m/s 675 mm Hg 57%
06:00 +15°C° 0 mm 0 m/s 675 mm Hg 52%
07:00 +16°C° 0 mm 0 m/s 675 mm Hg 46%
08:00 +19°C° 0 mm 0 m/s 676 mm Hg 41%
09:00 +21°C° 0 mm 0 m/s 676 mm Hg 35%
10:00 +23°C° 0 mm 0 m/s 677 mm Hg 30%
11:00 +27°C° 0 mm 1 m/s 677 mm Hg 28%
12:00 +28°C° 0 mm 2 m/s 677 mm Hg 27%
13:00 +29°C° 0 mm 3 m/s 677 mm Hg 26%
14:00 +29°C° 0 mm 3 m/s 676 mm Hg 27%
15:00 +29°C° 0 mm 3 m/s 676 mm Hg 27%
16:00 +29°C° 0 mm 3 m/s 676 mm Hg 28%
17:00 +27°C° 0 mm 3 m/s 675 mm Hg 35%
18:00 +25°C° 0 mm 3 m/s 675 mm Hg 42%
19:00 +23°C° 0 mm 2 m/s 675 mm Hg 48%
20:00 +20°C° 0 mm 2 m/s 674 mm Hg 52%
21:00 +19°C° 0 mm 1 m/s 674 mm Hg 57%
22:00 +16°C° 0 mm 1 m/s 674 mm Hg 61%
23:00 +16°C° 0 mm 1 m/s 673 mm Hg 61%

Dopodomani, 20 Giugno, Domenica

Tempo Temperatura Precipitazioni Vento Pressione Umidità
00:00 +15°C° 0 mm 0 m/s 673 mm Hg 61%
01:00 +15°C° 0 mm 0 m/s 673 mm Hg 61%
02:00 +14°C° 0 mm 0 m/s 673 mm Hg 61%
03:00 +14°C° 0 mm 0 m/s 673 mm Hg 61%
04:00 +14°C° 0 mm 0 m/s 673 mm Hg 61%
05:00 +18°C° 0 mm 1 m/s 673 mm Hg 57%
06:00 +19°C° 0 mm 1 m/s 674 mm Hg 53%
07:00 +21°C° 0 mm 1 m/s 674 mm Hg 49%
08:00 +22°C° 0 mm 1 m/s 674 mm Hg 45%
09:00 +24°C° 0 mm 1 m/s 674 mm Hg 41%
10:00 +26°C° 0 mm 1 m/s 674 mm Hg 37%
11:00 +27°C° 0 mm 2 m/s 674 mm Hg 34%
12:00 +29°C° 0 mm 3 m/s 674 mm Hg 31%
13:00 +32°C° 0 mm 4 m/s 675 mm Hg 28%
14:00 +30°C° 0 mm 4 m/s 674 mm Hg 30%
15:00 +29°C° 0 mm 4 m/s 674 mm Hg 31%
16:00 +29°C° 0 mm 4 m/s 674 mm Hg 33%
17:00 +27°C° 0 mm 4 m/s 673 mm Hg 39%
18:00 +25°C° 0 mm 3 m/s 672 mm Hg 45%
19:00 +23°C° 0 mm 2 m/s 672 mm Hg 51%
20:00 +20°C° 0 mm 2 m/s 672 mm Hg 54%
21:00 +19°C° 0 mm 2 m/s 671 mm Hg 56%
22:00 +18°C° 0 mm 2 m/s 671 mm Hg 59%
23:00 +17°C° 0 mm 2 m/s 671 mm Hg 61%

21 Giugno, Lunedi

Tempo Temperatura Precipitazioni Vento Pressione Umidità
00:00 +16°C° 0 mm 2 m/s 670 mm Hg 63%
01:00 +16°C° 0 mm 1 m/s 670 mm Hg 65%
02:00 +15°C° 0 mm 1 m/s 670 mm Hg 71%
03:00 +15°C° 0 mm 1 m/s 670 mm Hg 76%
04:00 +14°C° 0 mm 1 m/s 670 mm Hg 82%
05:00 +16°C° 0 mm 1 m/s 671 mm Hg 76%
06:00 +18°C° 0 mm 1 m/s 671 mm Hg 70%
07:00 +20°C° 0 mm 1 m/s 671 mm Hg 64%
08:00 +22°C° 0 mm 1 m/s 672 mm Hg 57%
09:00 +24°C° 0 mm 2 m/s 672 mm Hg 50%
10:00 +26°C° 0 mm 3 m/s 673 mm Hg 43%
11:00 +28°C° 0 mm 3 m/s 673 mm Hg 39%
12:00 +29°C° 0 mm 4 m/s 673 mm Hg 35%
13:00 +30°C° 0 mm 5 m/s 673 mm Hg 31%
14:00 +30°C° 0 mm 5 m/s 673 mm Hg 32%
15:00 +29°C° 0 mm 5 m/s 673 mm Hg 34%
16:00 +28°C° 0 mm 5 m/s 673 mm Hg 36%
17:00 +26°C° 0 mm 4 m/s 672 mm Hg 44%
18:00 +23°C° 0 mm 4 m/s 672 mm Hg 51%
19:00 +22°C° 0 mm 3 m/s 672 mm Hg 59%
20:00 +20°C° 0 mm 2 m/s 671 mm Hg 68%
21:00 +18°C° 0 mm 2 m/s 671 mm Hg 78%
22:00 +16°C° 0 mm 1 m/s 671 mm Hg 87%
23:00 +16°C° 0 mm 1 m/s 671 mm Hg 88%

22 Giugno, Martedi

Tempo Temperatura Precipitazioni Vento Pressione Umidità
00:00 +15°C° 0 mm 1 m/s 671 mm Hg 89%
01:00 +15°C° 0 mm 1 m/s 671 mm Hg 90%
02:00 +15°C° 0 mm 1 m/s 670 mm Hg 89%
03:00 +15°C° 0 mm 1 m/s 670 mm Hg 89%
04:00 +14°C° 0 mm 1 m/s 670 mm Hg 89%
05:00 +16°C° 0 mm 1 m/s 671 mm Hg 83%
06:00 +19°C° 0 mm 1 m/s 671 mm Hg 76%
07:00 +20°C° 0 mm 1 m/s 672 mm Hg 70%
08:00 +22°C° 0 mm 1 m/s 672 mm Hg 61%
09:00 +25°C° 0 mm 2 m/s 673 mm Hg 53%
10:00 +27°C° 0 mm 2 m/s 673 mm Hg 44%
11:00 +28°C° 0 mm 3 m/s 673 mm Hg 41%
12:00 +29°C° 0 mm 3 m/s 674 mm Hg 38%
13:00 +30°C° 0 mm 4 m/s 674 mm Hg 35%
14:00 +30°C° 0 mm 4 m/s 674 mm Hg 36%
15:00 +30°C° 0 mm 4 m/s 674 mm Hg 36%
16:00 +29°C° 0 mm 4 m/s 674 mm Hg 36%
17:00 +28°C° 0 mm 4 m/s 673 mm Hg 42%
18:00 +26°C° 0 mm 3 m/s 673 mm Hg 48%
19:00 +24°C° 0 mm 2 m/s 673 mm Hg 54%
20:00 +22°C° 0 mm 1 m/s 672 mm Hg 62%
21:00 +20°C° 0 mm 1 m/s 672 mm Hg 70%
22:00 +18°C° 0 mm 1 m/s 672 mm Hg 79%
23:00 +18°C° 0 mm 1 m/s 672 mm Hg 78%

23 Giugno, Mercoledi

Tempo Temperatura Precipitazioni Vento Pressione Umidità
00:00 +16°C° 0 mm 1 m/s 672 mm Hg 78%
01:00 +15°C° 0 mm 0 m/s 672 mm Hg 78%
02:00 +16°C° 0 mm 1 m/s 672 mm Hg 77%
03:00 +15°C° 0 mm 1 m/s 671 mm Hg 77%
04:00 +15°C° 0 mm 1 m/s 671 mm Hg 76%
05:00 +18°C° 0 mm 1 m/s 672 mm Hg 69%
06:00 +20°C° 0 mm 1 m/s 672 mm Hg 62%
07:00 +21°C° 0 mm 1 m/s 673 mm Hg 54%
08:00 +23°C° 0 mm 2 m/s 673 mm Hg 49%
09:00 +25°C° 0 mm 2 m/s 674 mm Hg 43%
10:00 +27°C° 0 mm 3 m/s 674 mm Hg 38%
11:00 +28°C° 0 mm 3 m/s 674 mm Hg 37%
12:00 +29°C° 0 mm 4 m/s 674 mm Hg 36%
13:00 +29°C° 0 mm 5 m/s 674 mm Hg 35%
14:00 +29°C° 0 mm 5 m/s 674 mm Hg 37%
15:00 +28°C° 0 mm 5 m/s 674 mm Hg 38%
16:00 +27°C° 0 mm 5 m/s 674 mm Hg 39%
17:00 +26°C° 0 mm 5 m/s 674 mm Hg 45%
18:00 +23°C° 0 mm 4 m/s 674 mm Hg 50%
19:00 +21°C° 0 mm 3 m/s 674 mm Hg 56%
20:00 +19°C° 0 mm 2 m/s 674 mm Hg 63%
21:00 +17°C° 0 mm 2 m/s 674 mm Hg 71%
22:00 +15°C° 0 mm 1 m/s 674 mm Hg 78%
23:00 +14°C° 0 mm 1 m/s 674 mm Hg 79%
Mostrare altro

Abbiamo bisogno del tuo consenso

Meteoprog e i nostri fornitori di servizi possono memorizzare e accedere a dati personali come cookie, identificatori di dispositivi o altre tecnologie simili sul tuo dispositivo e possono elaborare tali dati per personalizzare i contenuti e gli annunci, nonché fornire funzionalità dei social media e analizzarne il traffico.

  • Archiviare e/o accedere alle informazioni sul tuo dispositivo

    Cookie, identificatori di dispositivi o altre informazioni possono essere memorizzati o resi accessibili sul tuo dispositivo per le finalità sopra indicate.

  • Annunci e contenuti personalizzati, misurazione di annunci e contenuti, approfondimenti sul pubblico e sviluppo di prodotti

    Gli annunci e i contenuti possono essere personalizzati in base a un profilo. È possibile aggiungere più dati per personalizzare meglio annunci e contenuti. È possibile misurare il rendimento degli annunci e dei contenuti. È possibile ricavare informazioni sul pubblico che ha visto gli annunci e i contenuti. Tali dati possono essere utilizzati per sviluppare o migliorare l'esperienza, i sistemi e il software dell'utente.

Cliccando su “Accetto”, acconsenti all'uso di cookie, identificatori di dispositivo, web beacon o altre tecnologie simili. Puoi modificare le impostazioni nel browser del tuo dispositivo.

Per determinati scopi, è possibile fare affidamento su interessi legali, piuttosto che sul consenso. Puoi approfondire questo argomento consultando la nostra Informativa sulla privacy e sui cookie.